Location: Newark
(7.0858°N, 171.3717°E)
Time: 17:40:29
(UTC+00:00)

Altair - Pass Details

Date: 03 December 2020
Orbit: 1501 x 1682 km, 47.2° (Epoch: 20 January)

Event Time Altitude Azimuth Distance (km) Brightness Sun altitude
Exits shadow 17:19:21 24° 283° (WNW) 2,784 8.2 -17.7°
Maximum altitude 17:24:26 41° 231° (SW) 2,139 8.0 -16.6°
Drops below altitude 10° 17:33:17 10° 164° (SSE) 3,813 10.1 -14.5°
Sets 17:36:43 0° 157° (SSE) 4,825 10.8 -13.7°
